Preview of NWS' New Version of Forecast
This preview is not operational and should not be used for support decisions.

Regional Weather Roundup (RWR)

Issued by National Weather Service (NWS)

                            
000
ASUS43 KLSX 170607
RWRMO 

WEATHER SUMMARY FOR MISSOURI
NATIONAL WEATHER SERVICE SPRINGFIELD MO
1200 AM CST SUN FEB 17 2019

NOTE: "FAIR" INDICATES FEW OR NO CLOUDS BELOW 12,000 FEET WITH NO
       SIGNIFICANT WEATHER AND/OR OBSTRUCTIONS TO VISIBILITY.
       CURRENT SKY AND/OR WEATHER CONDITIONS ARE NOT AVAILABLE FOR
       CHILLICOTHE AND FARMINGTON.

MOZ001>031-035>038-043-044-053-054-170700-
...NORTHERN AND WESTERN MISSOURI...
  
CITY           SKY/WX    TMP DP  RH WIND       PRES   REMARKS
KANSAS CTY INT LGT SNOW  24  22  91 E7        29.75F FOG     WCI  16  
6HR MIN TEMP:  22; 6HR MAX TEMP:  24; 6HR PCP:  0.05;                

KANSAS C DTWN  CLOUDY    26  22  84 CALM      29.76F FOG              
6HR MIN TEMP:  24; 6HR MAX TEMP:  26; 6HR PCP:  0.02;                

LEE'S SUMMIT   LGT SNOW  25  24  96 E6        29.74F FOG     WCI  18  
6HR MIN TEMP:  23; 6HR MAX TEMP:  25; 6HR PCP:  0.01;                

ST JOSEPH      CLOUDY    25  24  96 SE5       29.78F FOG     WCI  19  
6HR MIN TEMP:  24; 6HR MAX TEMP:  26; 6HR PCP:  0.06;                

CHILLICOTHE      N/A     28  27  96 SE7       29.80R WCI  21          
6HR MIN TEMP:  27; 6HR MAX TEMP:  30; 6HR PCP:  0.07;                

KIRKSVILLE     CLOUDY    27  27 100 E8        29.79F FOG     WCI  19  
6HR MIN TEMP:  27; 6HR MAX TEMP:  29; 6HR PCP:  0.05;                

     
$$
MOZ066>068-077>081-088>096-101>105-170700-
...SOUTHWEST MISSOURI...
  
CITY           SKY/WX    TMP DP  RH WIND       PRES   REMARKS
SPRINGFIELD    CLOUDY    31  28  89 SE16      29.72F WCI  20          
6HR MIN TEMP:  31; 6HR MAX TEMP:  31; 6HR PCP: TRACE;                

JOPLIN         CLOUDY    33  32  96 SE5       29.72S WCI  29          
6HR MIN TEMP:  30; 6HR MAX TEMP:  33;                                

BRANSON        FOG       30  30 100 E3        29.75F VSB 3/4          
               
$$
MOZ032>034-039>042-045>050-055>058-069>072-170700-
...CENTRAL MISSOURI...  
  
CITY           SKY/WX    TMP DP  RH WIND       PRES   REMARKS
COLUMBIA       CLOUDY    28  25  88 SE8       29.78R FOG     WCI  20  
6HR MIN TEMP:  27; 6HR MAX TEMP:  29; 6HR PCP:  0.02;                

JEFFERSON CITY CLOUDY    29  24  82 SE8       29.81R HAZE    WCI  21  
6HR MIN TEMP:  29; 6HR MAX TEMP:  30; 6HR PCP:  0.01;                

ROLLA          CLOUDY    27  22  81 SE6       29.78R WCI  20          
6HR MIN TEMP:  26; 6HR MAX TEMP:  28; 6HR PCP:  0.01;                

SEDALIA        CLOUDY    27  23  85 SE12      29.78R WCI  17          
6HR MIN TEMP:  27; 6HR MAX TEMP:  28; 6HR PCP:  0.01;                

WHITEMAN AFB   CLOUDY    27  23  84 SE7       29.76S WCI  20          
WARRENSBURG    CLOUDY    28  23  80 E8        29.76F FOG     WCI  20  
OSAGE BEACH    MIX PCPN  28  26  92 E5        29.78F FOG     WCI  23  
               
$$
MOZ051-052-059>065-170700-
...EAST CENTRAL MISSOURI...
  
CITY           SKY/WX    TMP DP  RH WIND       PRES   REMARKS
ST LOUIS INTL  LGT SNOW  32  25  75 E10       29.82F WCI  24          
6HR MIN TEMP:  29; 6HR MAX TEMP:  32; 6HR PCP: TRACE;                

SPIRIT OF STL  CLOUDY    32  26  78 E8        29.80F WCI  25          
6HR MIN TEMP:  28; 6HR MAX TEMP:  32; 6HR PCP: TRACE;                

ST CHARLES     FLURRIES  31  26  82 E12       29.82F WCI  22          
6HR MIN TEMP:  30; 6HR MAX TEMP:  32; 6HR PCP: TRACE;                

                   
$$
MOZ072>076-082>087-097>100-106>115-170700-
...SOUTH CENTRAL AND SOUTHEAST MISSOURI...
  
CITY           SKY/WX    TMP DP  RH WIND       PRES   REMARKS
CAPE GIRARDEAU CLOUDY    33  29  85 CALM      29.81R                  
6HR MIN TEMP:  29; 6HR MAX TEMP:  33; 6HR PCP: TRACE;                

FARMINGTON     FLURRIES  30  25  81 SE3       29.79F                  
6HR MIN TEMP:  20; 6HR MAX TEMP:  30; 6HR PCP: TRACE;                

POPLAR BLUFF   CLOUDY    34  33  96 CALM      29.80F FOG              
6HR MIN TEMP:  31; 6HR MAX TEMP:  34; 6HR PCP:  0.01;                

WEST PLAINS    CLOUDY    30  28  92 SE6       29.76S FOG     WCI  24  
6HR MIN TEMP:  29; 6HR MAX TEMP:  30; 6HR PCP:  0.01;                

                                       
$$